"Period start","avg(HW err(1)/warn(2) (#))","avg(Visibility (m))","avg(Weather code (#))","avg(Precip intensity (mm/h))","min(HW err(1)/warn(2) (#))","max(HW err(1)/warn(2) (#))","std(HW err(1)/warn(2) (#))","med(HW err(1)/warn(2) (#))","min(Visibility (m))","max(Visibility (m))","std(Visibility (m))","med(Visibility (m))","min(Weather code (#))","max(Weather code (#))","std(Weather code (#))","med(Weather code (#))","min(Precip intensity (mm/h))","max(Precip intensity (mm/h))","std(Precip intensity (mm/h))","med(Precip intensity (mm/h))"
2014-08-24 00:00:00,0,49804,0,0.00,0,0,0,0,48193,50000,539,50000,0,0,0,0,0.00,0.00,0.00,0.00
2014-08-24 00:10:00,0,44586,0,0.00,0,0,0,0,21249,50000,9153,50000,0,0,0,0,0.00,0.00,0.00,0.00
2014-08-24 00:20:00,0,35745,0,0.00,0,0,0,0,16696,50000,11392,38276,0,0,0,0,0.00,0.00,0.00,0.00
2014-08-24 00:30:00,0,49630,0,0.00,0,0,0,0,46301,50000,1110,50000,0,0,0,0,0.00,0.00,0.00,0.00
2014-08-24 00:40:00,0,49123,0,0.00,0,0,0,0,41228,50000,2632,50000,0,0,0,0,0.00,0.00,0.00,0.00
2014-08-24 00:50:00,0,49590,0,0.00,0,0,0,0,46382,50000,1074,50000,0,0,0,0,0.00,0.00,0.00,0.00
2014-08-24 01:00:00,1,49040,0,0.00,0,2,1,2,45714,50000,1666,50000,0,0,0,0,0.00,0.00,0.00,0.00
2014-08-24 01:10:00,1,49146,0,0.00,0,2,1,1,45970,50000,1554,50000,0,0,0,0,0.00,0.00,0.00,0.00
2014-08-24 01:20:00,0,49949,0,0.00,0,0,0,0,49527,50000,141,50000,0,0,0,0,0.00,0.00,0.00,0.00
2014-08-24 01:30:00,0,50000,0,0.00,0,0,0,0,50000,50000,0,50000,0,0,0,0,0.00,0.00,0.00,0.00
2014-08-24 01:40:00,0,49998,0,0.00,0,0,0,0,49979,50000,6,50000,0,0,0,0,0.00,0.00,0.00,0.00
2014-08-24 01:50:00,0,32978,0,0.00,0,0,0,0,11388,50000,11838,34706,0,0,0,0,0.00,0.00,0.00,0.00
2014-08-24 02:00:00,0,6803,4,0.00,0,2,1,0,4409,15003,2924,5932,0,10,5,0,0.00,0.00,0.00,0.00
2014-08-24 02:10:00,2,9271,10,0.00,2,2,0,2,7019,12574,1846,8852,10,10,0,10,0.00,0.00,0.00,0.00
2014-08-24 02:20:00,2,33431,5,0.00,2,2,0,2,20536,47342,7468,33630,0,10,5,5,0.00,0.00,0.00,0.00
2014-08-24 02:30:00,2,13057,0,0.00,2,2,0,2,2933,21569,6474,13301,0,0,0,0,0.00,0.00,0.00,0.00
2014-08-24 02:40:00,2,3376,10,0.00,2,2,0,2,2098,6297,1125,3254,10,10,0,10,0.00,0.00,0.00,0.00
2014-08-24 02:50:00,2,12695,10,0.00,2,2,0,2,3327,37330,9016,10131,10,10,0,10,0.00,0.00,0.00,0.00
2014-08-24 03:00:00,2,18805,5,0.00,2,2,0,2,9649,31382,7031,15374,0,10,5,5,0.00,0.00,0.00,0.00
2014-08-24 03:10:00,2,8590,2,0.00,2,2,0,2,6595,11303,1806,7861,0,10,4,0,0.00,0.00,0.00,0.00
2014-08-24 03:20:00,2,26299,6,0.00,2,2,0,2,13727,44315,9731,24740,0,10,5,10,0.00,0.00,0.00,0.00
2014-08-24 03:30:00,2,26307,0,0.00,2,2,0,2,11579,50000,13804,21604,0,0,0,0,0.00,0.00,0.00,0.00
2014-08-24 03:40:00,2,49567,0,0.00,2,2,0,2,47616,50000,761,50000,0,0,0,0,0.00,0.00,0.00,0.00
2014-08-24 03:50:00,2,49718,0,0.00,2,2,0,2,47258,50000,820,50000,0,0,0,0,0.00,0.00,0.00,0.00
2014-08-24 04:00:00,2,47501,0,0.00,2,2,0,2,38081,50000,3993,50000,0,0,0,0,0.00,0.00,0.00,0.00
2014-08-24 04:10:00,1,49537,0,0.00,0,2,1,1,45372,50000,1388,50000,0,0,0,0,0.00,0.00,0.00,0.00
2014-08-24 04:20:00,2,49973,0,0.00,0,2,1,2,49732,50000,80,50000,0,0,0,0,0.00,0.00,0.00,0.00
2014-08-24 04:30:00,1,48456,0,0.00,0,2,1,0,45028,50000,1620,48787,0,0,0,0,0.00,0.00,0.00,0.00
2014-08-24 04:40:00,1,46254,0,0.00,0,2,1,1,39059,50000,4424,49358,0,0,0,0,0.00,0.00,0.00,0.00
2014-08-24 04:50:00,2,47411,0,0.00,0,2,1,2,41976,50000,2690,47664,0,0,0,0,0.00,0.00,0.00,0.00
2014-08-24 05:00:00,2,48895,0,0.00,2,2,0,2,46221,50000,1507,50000,0,0,0,0,0.00,0.00,0.00,0.00
2014-08-24 05:10:00,2,47713,0,0.00,0,2,1,2,41750,50000,3117,49810,0,0,0,0,0.00,0.00,0.00,0.00
2014-08-24 05:20:00,0,49626,0,0.00,0,2,1,0,48144,50000,672,50000,0,0,0,0,0.00,0.00,0.00,0.00
2014-08-24 05:30:00,0,50000,0,0.00,0,0,0,0,50000,50000,0,50000,0,0,0,0,0.00,0.00,0.00,0.00
2014-08-24 05:40:00,0,46907,0,0.00,0,0,0,0,40073,50000,3660,48790,0,0,0,0,0.00,0.00,0.00,0.00
2014-08-24 05:50:00,0,49519,0,0.00,0,0,0,0,45188,50000,1444,50000,0,0,0,0,0.00,0.00,0.00,0.00
2014-08-24 06:00:00,0,47651,0,0.00,0,0,0,0,43297,50000,2246,47858,0,0,0,0,0.00,0.00,0.00,0.00
2014-08-24 06:10:00,0,48399,0,0.00,0,0,0,0,40022,50000,3030,50000,0,0,0,0,0.00,0.00,0.00,0.00
2014-08-24 06:20:00,0,49260,0,0.00,0,0,0,0,43501,50000,1929,50000,0,0,0,0,0.00,0.00,0.00,0.00
2014-08-24 06:30:00,0,45556,0,0.00,0,0,0,0,37436,50000,4657,46764,0,0,0,0,0.00,0.00,0.00,0.00
2014-08-24 06:40:00,0,48898,0,0.00,0,0,0,0,45037,50000,1698,50000,0,0,0,0,0.00,0.00,0.00,0.00
2014-08-24 06:50:00,0,48740,0,0.00,0,0,0,0,43386,50000,2524,50000,0,0,0,0,0.00,0.00,0.00,0.00
2014-08-24 07:00:00,0,49034,0,0.00,0,0,0,0,45695,50000,1411,50000,0,0,0,0,0.00,0.00,0.00,0.00
2014-08-24 07:10:00,0,48408,0,0.00,0,0,0,0,42069,50000,2518,49554,0,0,0,0,0.00,0.00,0.00,0.00
2014-08-24 07:20:00,0,47167,0,0.00,0,0,0,0,39114,50000,3748,49464,0,0,0,0,0.00,0.00,0.00,0.00
2014-08-24 07:30:00,0,49549,0,0.00,0,0,0,0,45630,50000,1307,50000,0,0,0,0,0.00,0.00,0.00,0.00
2014-08-24 07:40:00,0,49334,0,0.00,0,0,0,0,45305,50000,1398,50000,0,0,0,0,0.00,0.00,0.00,0.00
2014-08-24 07:50:00,0,49228,0,0.00,0,0,0,0,44729,50000,1573,49970,0,0,0,0,0.00,0.00,0.00,0.00
2014-08-24 08:00:00,0,49511,0,0.00,0,0,0,0,47544,50000,885,50000,0,0,0,0,0.00,0.00,0.00,0.00
2014-08-24 08:10:00,0,48502,0,0.00,0,0,0,0,42312,50000,2374,50000,0,0,0,0,0.00,0.00,0.00,0.00
2014-08-24 08:20:00,0,49039,0,0.00,0,0,0,0,46062,50000,1487,50000,0,0,0,0,0.00,0.00,0.00,0.00
2014-08-24 08:30:00,0,48115,0,0.00,0,0,0,0,39556,50000,3393,50000,0,0,0,0,0.00,0.00,0.00,0.00
2014-08-24 08:40:00,0,49943,0,0.00,0,0,0,0,49433,50000,170,50000,0,0,0,0,0.00,0.00,0.00,0.00
2014-08-24 08:50:00,0,47479,0,0.00,0,0,0,0,40209,50000,3070,48596,0,0,0,0,0.00,0.00,0.00,0.00
2014-08-24 09:00:00,0,47748,0,0.00,0,0,0,0,40115,50000,3133,49712,0,0,0,0,0.00,0.00,0.00,0.00
2014-08-24 09:10:00,0,48952,0,0.00,0,0,0,0,45994,50000,1568,50000,0,0,0,0,0.00,0.00,0.00,0.00
2014-08-24 09:20:00,0,49731,0,0.00,0,0,0,0,48420,50000,504,50000,0,0,0,0,0.00,0.00,0.00,0.00
2014-08-24 09:30:00,0,49353,0,0.00,0,0,0,0,43528,50000,1942,50000,0,0,0,0,0.00,0.00,0.00,0.00
2014-08-24 09:40:00,0,50000,0,0.00,0,0,0,0,50000,50000,0,50000,0,0,0,0,0.00,0.00,0.00,0.00
2014-08-24 09:50:00,0,49258,0,0.00,0,0,0,0,44938,50000,1603,50000,0,0,0,0,0.00,0.00,0.00,0.00
2014-08-24 10:00:00,0,49133,0,0.00,0,0,0,0,46852,50000,1178,50000,0,0,0,0,0.00,0.00,0.00,0.00
2014-08-24 10:10:00,0,49976,0,0.00,0,0,0,0,49763,50000,71,50000,0,0,0,0,0.00,0.00,0.00,0.00
2014-08-24 10:20:00,0,49898,0,0.00,0,0,0,0,49312,50000,219,50000,0,0,0,0,0.00,0.00,0.00,0.00
2014-08-24 10:30:00,0,50000,0,0.00,0,0,0,0,50000,50000,0,50000,0,0,0,0,0.00,0.00,0.00,0.00
2014-08-24 10:40:00,0,50000,0,0.00,0,0,0,0,50000,50000,0,50000,0,0,0,0,0.00,0.00,0.00,0.00
2014-08-24 10:50:00,0,49815,0,0.00,0,0,0,0,48147,50000,556,50000,0,0,0,0,0.00,0.00,0.00,0.00
2014-08-24 11:00:00,0,49967,0,0.00,0,0,0,0,49674,50000,98,50000,0,0,0,0,0.00,0.00,0.00,0.00
2014-08-24 11:10:00,0,50000,0,0.00,0,0,0,0,50000,50000,0,50000,0,0,0,0,0.00,0.00,0.00,0.00
2014-08-24 11:20:00,0,50000,0,0.00,0,0,0,0,50000,50000,0,50000,0,0,0,0,0.00,0.00,0.00,0.00
2014-08-24 11:30:00,0,49764,0,0.00,0,0,0,0,47637,50000,709,50000,0,0,0,0,0.00,0.00,0.00,0.00
2014-08-24 11:40:00,0,49443,0,0.00,0,0,0,0,47026,50000,1029,50000,0,0,0,0,0.00,0.00,0.00,0.00
2014-08-24 11:50:00,0,50000,0,0.00,0,0,0,0,50000,50000,0,50000,0,0,0,0,0.00,0.00,0.00,0.00
2014-08-24 12:00:00,0,50000,0,0.00,0,0,0,0,50000,50000,0,50000,0,0,0,0,0.00,0.00,0.00,0.00
2014-08-24 12:10:00,0,50000,0,0.00,0,0,0,0,50000,50000,0,50000,0,0,0,0,0.00,0.00,0.00,0.00
2014-08-24 12:20:00,0,49518,0,0.00,0,0,0,0,47153,50000,984,50000,0,0,0,0,0.00,0.00,0.00,0.00
2014-08-24 12:30:00,0,50000,0,0.00,0,0,0,0,50000,50000,0,50000,0,0,0,0,0.00,0.00,0.00,0.00
2014-08-24 12:40:00,0,50000,0,0.00,0,0,0,0,50000,50000,0,50000,0,0,0,0,0.00,0.00,0.00,0.00
2014-08-24 12:50:00,0,50000,0,0.00,0,0,0,0,50000,50000,0,50000,0,0,0,0,0.00,0.00,0.00,0.00
2014-08-24 13:00:00,0,50000,0,0.00,0,0,0,0,50000,50000,0,50000,0,0,0,0,0.00,0.00,0.00,0.00
2014-08-24 13:10:00,0,50000,0,0.00,0,0,0,0,50000,50000,0,50000,0,0,0,0,0.00,0.00,0.00,0.00
2014-08-24 13:20:00,0,49998,0,0.00,0,0,0,0,49980,50000,6,50000,0,0,0,0,0.00,0.00,0.00,0.00
2014-08-24 13:30:00,0,49693,0,0.00,0,0,0,0,46932,50000,920,50000,0,0,0,0,0.00,0.00,0.00,0.00
2014-08-24 13:40:00,0,50000,0,0.00,0,0,0,0,50000,50000,0,50000,0,0,0,0,0.00,0.00,0.00,0.00
2014-08-24 13:50:00,0,50000,0,0.00,0,0,0,0,50000,50000,0,50000,0,0,0,0,0.00,0.00,0.00,0.00
2014-08-24 14:00:00,0,50000,0,0.00,0,0,0,0,50000,50000,0,50000,0,0,0,0,0.00,0.00,0.00,0.00
2014-08-24 14:10:00,0,49861,0,0.00,0,0,0,0,48611,50000,417,50000,0,0,0,0,0.00,0.00,0.00,0.00
2014-08-24 14:20:00,0,50000,0,0.00,0,0,0,0,50000,50000,0,50000,0,0,0,0,0.00,0.00,0.00,0.00
2014-08-24 14:30:00,0,50000,0,0.00,0,0,0,0,50000,50000,0,50000,0,0,0,0,0.00,0.00,0.00,0.00
2014-08-24 14:40:00,0,50000,0,0.00,0,0,0,0,50000,50000,0,50000,0,0,0,0,0.00,0.00,0.00,0.00
2014-08-24 14:50:00,0,50000,0,0.00,0,0,0,0,50000,50000,0,50000,0,0,0,0,0.00,0.00,0.00,0.00
2014-08-24 15:00:00,0,33476,18,0.04,0,0,0,0,7968,50000,15648,36525,0,61,28,0,0.00,0.30,0.09,0.00
2014-08-24 15:10:00,0,50000,0,0.00,0,0,0,0,50000,50000,0,50000,0,0,0,0,0.00,0.00,0.00,0.00
2014-08-24 15:20:00,0,50000,0,0.00,0,0,0,0,50000,50000,0,50000,0,0,0,0,0.00,0.00,0.00,0.00
2014-08-24 15:30:00,0,49955,0,0.00,0,0,0,0,49549,50000,135,50000,0,0,0,0,0.00,0.00,0.00,0.00
2014-08-24 15:40:00,0,50000,0,0.00,0,0,0,0,50000,50000,0,50000,0,0,0,0,0.00,0.00,0.00,0.00
2014-08-24 15:50:00,0,50000,0,0.00,0,0,0,0,50000,50000,0,50000,0,0,0,0,0.00,0.00,0.00,0.00
2014-08-24 16:00:00,0,49998,0,0.00,0,0,0,0,49976,50000,7,50000,0,0,0,0,0.00,0.00,0.00,0.00
2014-08-24 16:10:00,0,50000,0,0.00,0,0,0,0,50000,50000,0,50000,0,0,0,0,0.00,0.00,0.00,0.00
2014-08-24 16:20:00,0,50000,0,0.00,0,0,0,0,50000,50000,0,50000,0,0,0,0,0.00,0.00,0.00,0.00
2014-08-24 16:30:00,0,50000,0,0.00,0,0,0,0,50000,50000,0,50000,0,0,0,0,0.00,0.00,0.00,0.00
2014-08-24 16:40:00,0,50000,0,0.00,0,0,0,0,50000,50000,0,50000,0,0,0,0,0.00,0.00,0.00,0.00
2014-08-24 16:50:00,0,50000,0,0.00,0,0,0,0,50000,50000,0,50000,0,0,0,0,0.00,0.00,0.00,0.00
2014-08-24 17:00:00,0,50000,0,0.00,0,0,0,0,50000,50000,0,50000,0,0,0,0,0.00,0.00,0.00,0.00
2014-08-24 17:10:00,0,49920,0,0.00,0,0,0,0,49540,50000,163,50000,0,0,0,0,0.00,0.00,0.00,0.00
2014-08-24 17:20:00,0,50000,0,0.00,0,0,0,0,50000,50000,0,50000,0,0,0,0,0.00,0.00,0.00,0.00
2014-08-24 17:30:00,0,49828,0,0.00,0,0,0,0,48282,50000,515,50000,0,0,0,0,0.00,0.00,0.00,0.00
2014-08-24 17:40:00,0,50000,0,0.00,0,0,0,0,50000,50000,0,50000,0,0,0,0,0.00,0.00,0.00,0.00
2014-08-24 17:50:00,0,50000,0,0.00,0,0,0,0,50000,50000,0,50000,0,0,0,0,0.00,0.00,0.00,0.00
2014-08-24 18:00:00,0,50000,0,0.00,0,0,0,0,50000,50000,0,50000,0,0,0,0,0.00,0.00,0.00,0.00
2014-08-24 18:10:00,0,49659,0,0.00,0,0,0,0,48160,50000,684,50000,0,0,0,0,0.00,0.00,0.00,0.00
2014-08-24 18:20:00,0,50000,0,0.00,0,0,0,0,50000,50000,0,50000,0,0,0,0,0.00,0.00,0.00,0.00
2014-08-24 18:30:00,0,50000,0,0.00,0,0,0,0,50000,50000,0,50000,0,0,0,0,0.00,0.00,0.00,0.00
2014-08-24 18:40:00,0,50000,0,0.00,0,0,0,0,50000,50000,0,50000,0,0,0,0,0.00,0.00,0.00,0.00
2014-08-24 18:50:00,0,49914,0,0.00,0,0,0,0,49145,50000,256,50000,0,0,0,0,0.00,0.00,0.00,0.00
2014-08-24 19:00:00,0,49975,0,0.00,0,0,0,0,49746,50000,76,50000,0,0,0,0,0.00,0.00,0.00,0.00
2014-08-24 19:10:00,0,50000,0,0.00,0,0,0,0,50000,50000,0,50000,0,0,0,0,0.00,0.00,0.00,0.00
2014-08-24 19:20:00,0,49958,0,0.00,0,0,0,0,49584,50000,125,50000,0,0,0,0,0.00,0.00,0.00,0.00
2014-08-24 19:30:00,0,50000,0,0.00,0,0,0,0,50000,50000,0,50000,0,0,0,0,0.00,0.00,0.00,0.00
2014-08-24 19:40:00,0,50000,0,0.00,0,0,0,0,50000,50000,0,50000,0,0,0,0,0.00,0.00,0.00,0.00
2014-08-24 19:50:00,0,49988,0,0.00,0,0,0,0,49882,50000,35,50000,0,0,0,0,0.00,0.00,0.00,0.00
2014-08-24 20:00:00,0,49704,0,0.00,0,0,0,0,47557,50000,732,50000,0,0,0,0,0.00,0.00,0.00,0.00
2014-08-24 20:10:00,0,49817,0,0.00,0,0,0,0,48166,50000,550,50000,0,0,0,0,0.00,0.00,0.00,0.00
2014-08-24 20:20:00,0,48460,0,0.00,0,0,0,0,40098,50000,3054,50000,0,0,0,0,0.00,0.00,0.00,0.00
2014-08-24 20:30:00,0,48963,0,0.00,0,0,0,0,41623,50000,2467,49959,0,0,0,0,0.00,0.00,0.00,0.00
2014-08-24 20:40:00,0,47690,0,0.00,0,0,0,0,42419,50000,2586,49004,0,0,0,0,0.00,0.00,0.00,0.00
2014-08-24 20:50:00,0,47929,0,0.00,0,0,0,0,42750,50000,2518,49154,0,0,0,0,0.00,0.00,0.00,0.00
2014-08-24 21:00:00,0,48349,0,0.00,0,0,0,0,43538,50000,2299,50000,0,0,0,0,0.00,0.00,0.00,0.00
2014-08-24 21:10:00,0,48792,0,0.00,0,0,0,0,44762,50000,1960,50000,0,0,0,0,0.00,0.00,0.00,0.00
2014-08-24 21:20:00,0,46865,0,0.00,0,0,0,0,43331,50000,1969,46778,0,0,0,0,0.00,0.00,0.00,0.00
2014-08-24 21:30:00,0,48042,0,0.00,0,0,0,0,44198,50000,2048,48682,0,0,0,0,0.00,0.00,0.00,0.00
2014-08-24 21:40:00,0,48738,0,0.00,0,0,0,0,44434,50000,1947,50000,0,0,0,0,0.00,0.00,0.00,0.00
2014-08-24 21:50:00,0,48353,0,0.00,0,0,0,0,45186,50000,1809,48914,0,0,0,0,0.00,0.00,0.00,0.00
2014-08-24 22:00:00,0,48385,0,0.00,0,0,0,0,42488,50000,2496,49998,0,0,0,0,0.00,0.00,0.00,0.00
2014-08-24 22:10:00,0,46824,0,0.00,0,0,0,0,42058,50000,2513,47184,0,0,0,0,0.00,0.00,0.00,0.00
2014-08-24 22:20:00,0,49478,0,0.00,0,0,0,0,48077,50000,699,50000,0,0,0,0,0.00,0.00,0.00,0.00
2014-08-24 22:30:00,0,48092,0,0.00,0,0,0,0,41403,50000,2548,48656,0,0,0,0,0.00,0.00,0.00,0.00
2014-08-24 22:40:00,0,44194,0,0.00,0,0,0,0,38200,50000,4218,44848,0,0,0,0,0.00,0.00,0.00,0.00
2014-08-24 22:50:00,0,45182,0,0.00,0,0,0,0,32004,50000,5763,47032,0,0,0,0,0.00,0.00,0.00,0.00
2014-08-24 23:00:00,0,47006,0,0.00,0,0,0,0,41053,50000,3332,48892,0,0,0,0,0.00,0.00,0.00,0.00
2014-08-24 23:10:00,0,48488,0,0.00,0,0,0,0,44510,50000,1971,50000,0,0,0,0,0.00,0.00,0.00,0.00
2014-08-24 23:20:00,0,45092,0,0.00,0,0,0,0,39705,50000,3545,45276,0,0,0,0,0.00,0.00,0.00,0.00
2014-08-24 23:30:00,0,43268,0,0.00,0,0,0,0,35689,50000,5207,41532,0,0,0,0,0.00,0.00,0.00,0.00
2014-08-24 23:40:00,0,40623,0,0.00,0,0,0,0,26285,49285,7116,42862,0,0,0,0,0.00,0.00,0.00,0.00
2014-08-24 23:50:00,0,45423,0,0.00,0,0,0,0,37935,50000,4387,46425,0,0,0,0,0.00,0.00,0.00,0.00
